Miscellaneous Local Product
Issued by NWS Hastings, NE

Home | Current Version | Previous Version | Graphics & Text | Print | Product List | Glossary On
Versions: 1 2 3 4 5 6 7 8 9 10 11 12 13 14 15 16 17 18 19 20 21 22 23 24 25 26 27 28 29 30 31 32 33 34 35 36 37 38 39 40 41 42 43 44 45 46 47 48 49 50
000
AXUS43 KGID 272302
MISGRI

GID CWA HOURLY WEATHER ROUNDUP
NATIONAL WEATHER SERVICE HASTINGS NE
500 PM CST THU NOV 27 2014

NOTE: "FAIR" INDICATES FEW OR NO CLOUDS BELOW 12,000 FEET WITH NO
SIGNIFICANT WEATHER AND/OR OBSTRUCTIONS TO VISIBILITY.

...SOUTH CENTRAL NEBRASKA...

CITY           SKY/WX    TMP DP  RH WIND       PRES   REMARKS
GRAND ISLAND   CLEAR     35  18  49 S14       30.17F WCI  26
HASTINGS       CLEAR     36  17  46 S12       30.15F WCI  28
KEARNEY        CLEAR     37  18  44 SE15      30.13F WCI  28
ORD            CLEAR     36  20  52 S10G21    30.10F WCI  28
YORK           PTCLDY    32  18  55 SE9       30.21F WCI  24
AURORA         PTCLDY    37  17  45 S14       30.18F WCI  28
LEXINGTON      CLEAR     45  22  41 S13G20    30.07F
HOLDREGE       CLEAR     44  21  39 S15G21    30.10F
HEBRON         CLEAR     39  12  32 S12       30.24F WCI  32

...NEBRASKA PANHANDLE...

CITY           SKY/WX    TMP DP  RH WIND       PRES   REMARKS
CHADRON        PTCLDY   N/A N/A N/A NW7       29.92F
ALLIANCE       CLEAR     52  28  39 W12       29.96F
SCOTTSBLUFF    CLEAR     55  30  38 W13       29.98F
SIDNEY         MOCLDY    44  31  60 W9        30.04S

...WESTERN AND NORTH CENTRAL NEBRASKA...

CITY           SKY/WX    TMP DP  RH WIND       PRES   REMARKS
VALENTINE      PTCLDY    40  24  53 S10       29.96F WCI  33
AINSWORTH      PTCLDY    40  22  48 S12       30.01S WCI  33
ONEILL         PTCLDY    33  19  55 S16       30.09F WCI  23
BROKEN BOW     CLEAR     41  22  46 S8        30.07S
IMPERIAL       MOCLDY    54  30  40 SE3       30.03F
NORTH PLATTE   CLEAR     42  23  46 SE5       30.02F
MCCOOK         PTCLDY    53  26  35 S14       30.05F

...EASTERN NEBRASKA...

CITY           SKY/WX    TMP DP  RH WIND       PRES   REMARKS
NORFOLK        PTCLDY    26  15  63 SE13      30.20F WCI  15
SO SIOUX CITY  MOCLDY    19   7  59 SE16      30.29F WCI   4
TEKAMAH        MOCLDY    21   7  54 SE15      30.32F WCI   8
COLUMBUS       CLEAR     28  12  50 SE9       30.24F WCI  20
ALBION         CLEAR     32  15  49 SE15G22   30.17F WCI  22
OMAHA EPPLEY   MOCLDY    23  10  57 SE16      30.33F WCI  10
OFFUTT AFB     MOCLDY    23  11  59 SE14      30.32F WCI  11
MILLARD        PTCLDY    25  10  54 SE12      30.32F WCI  14
LINCOLN        PTCLDY    31  16  54 SE13      30.28F WCI  21
NEBRASKA CITY  PTCLDY    27  11  51 SE8       30.32F WCI  19
BEATRICE       PTCLDY    37  18  46 S10       30.27F WCI  30
FALLS CITY     PTCLDY    29  15  56 E12       30.32F WCI  19

...NORTHERN KANSAS...

CITY           SKY/WX    TMP DP  RH WIND       PRES   REMARKS
GOODLAND       MOCLDY    60  25  26 S12       30.06F
HILL CITY      PTCLDY    50  24  36 S9        30.11F
NORTON         CLEAR     45  18  33 SE9       30.09F
PHILLIPSBURG   CLEAR     46  21  36 E8        30.14F
SMITH CENTER   CLEAR     41  19  42 SE14      30.17F
BELOIT         CLEAR     41  18  38 SE9       30.20F
HAYS           CLOUDY    46  21  36 S12       30.16S
RUSSELL        MOCLDY    45  22  40 S13       30.17F
CONCORDIA      CLEAR     39  17  41 S12       30.22F WCI  32
SALINA         CLEAR     42  17  36 S12       30.26F
TOPEKA         MOCLDY    38  21  50 SE12      30.34F WCI  30



USA.gov is the U.S. government's official web portal to all federal, state and local government web resources and services.